INTELSAT 33E DEB, 64394

Orbit data source: Space-Track

INTELSAT 33E DEB, 64394 is space debris in GEO originally from a launch on Wed, 24 Aug 2016 UTC launched from the French Guiana (FRGUI). Debris objects in space refer to the collection of defunct objects orbiting the Earth. Examples of debris include non-operational satellites, rocket bodies, and fragments generated from explosions, collisions, or faulty payload assembly.

Loading next visibility...
Identifier
64394, 2016-053Y
Orbit
GEO
Country
Flag of UnknownUnknown / ITSO
Related business
Manufacturer
Boeing/ES
Mission
Spacecraft
Bus & Motor
Unknown
Mass
Unknown
Launch date (UTC)
2016-08-24 (9 years ago)
Launch vehicle
Unknown
Launch site
French Guiana (FRGUI)
Object type
Payload
Rocket body
Debris
Shape & HBR
Unknown shape, 1.1 m
Radar Cross Section
RCS unknown

Expand to show TLE details & history
Last TLE update: 21 hours ago

TLE from 21 hours ago
0 INTELSAT 33E DEB
1 64394U 16053Y   25291.34794645 -.00000146  00000-0  00000-0 0  9994
2 64394   0.9597  26.0497 0610429 349.9633 345.8671  1.08356108  3824
Epoch: 2025-10-18T08:21Z
TLE epoch observation values (Epoch: 2025-10-18T08:21:02.573Z)
Latitude
-0.40863°
Longitude
-152.33803°
Altitude
31,291.297 km
Speed
3.348 km/s
True Right ascension
00h 00m 00s
True Declination
0° 24' 29"
Sunlit
Object was in daylight at epoch
Visualization orbit readout
Latitude
Unknown
Longitude
Unknown
Altitude
Unknown
Speed
Unknown
Apparent Right ascension
Unknown
Apparent Declination
Unknown
Sunlit
N/A
Visualization observer readout
Local Sidereal Time
00:12:31
Azimuth
Unknown
Elevation
Unknown
Doppler factor
Unknown
Orbital elements
Apogee altitude
36,107.759 km
Perigee altitude
31,219.243 km
Semi-major axis
40,041.638 km
Eccentricity
0.06104
Inclination
0.9597°
RAAN
26.0497°
Arg. of periapsis
349.9633°
True anomaly
344.02344°
Mean anomaly
345.8671°
Eccentric anomaly
344.95949°
Mean motion
0.27088 °/min
Orbital period
1,329.01 mins
BSTAR
0
Loading maneuver chart data...
Computing Atmospheric mass density...
Loading historical data...
Loading historical data...
Loading historical data...
Loading historical data...
Loading historical data...
Loading historical data...
Loading historical data...

Documentation

Showing up to 5 results
|